Weather reports worldwide

Advertisment
Dax, France (7603): temperature & dewpoint: 19.09.2020 03:00:00 - 25.09.2020 03:00:00 (CEST)Dax, France (7603): temperature 5cm: 19.09.2020 03:00:00 - 25.09.2020 03:00:00 (CEST)Dax, France (7603): temperature -20cm & temperature -100cm: 19.09.2020 03:00:00 - 25.09.2020 03:00:00 (CEST)Dax, France (7603): wind speed & gusts: 19.09.2020 03:00:00 - 25.09.2020 03:00:00 (CEST)Dax, France (7603): wind direction: 19.09.2020 03:00:00 - 25.09.2020 03:00:00 (CEST)Dax, France (7603): reduced air pressure: 19.09.2020 03:00:00 - 25.09.2020 03:00:00 (CEST)Dax, France (7603): visibility: 19.09.2020 03:00:00 - 25.09.2020 03:00:00 (CEST)Dax, France (7603): sunshine duration: 19.09.2020 03:00:00 - 25.09.2020 03:00:00 (CEST)Dax, France (7603): precipitation: 19.09.2020 03:00:00 - 25.09.2020 03:00:00 (CEST)
Date & Time tt [°C] td [°C] tt 5cm [°C] tt -20cm [°C] tt -100cm [°C] ff [km/h] ff [kn] fx [km/h] fx [kn] dd ppp [hPa] vv [km] sd [min] rr [mm]
25.09.2020 03:00:00 - - - - - - - - - - - - - -
25.09.2020 02:00:00 13,1 10,6 11,7 21,5 21,4 11 6 43 23 SW 1013,4 3,9 0 0,8
25.09.2020 01:00:00 13,6 11,5 12,2 21,6 21,4 12 6 29 16 WSW 1013,0 4,5 0 0,0
25.09.2020 00:00:00 13,2 11,4 12,3 21,7 21,4 14 8 40 22 WNW 1013,2 2,5 0 2,8
24.09.2020 23:00:00 14,6 12,3 13,2 21,8 21,4 10 6 40 22 W 1012,6 7 0 0,2
24.09.2020 22:00:00 15,5 13,0 14,2 21,8 21,4 22 12 43 23 WNW 1012,3 8 0 1,0
24.09.2020 21:00:00 16,5 14,0 14,9 21,9 21,5 13 7 37 20 W 1011,5 3,6 0 0,4
24.09.2020 20:00:00 15,7 14,4 14,7 21,7 21,4 21 11 46 25 WSW 1011,3 1,0 0 4,1
24.09.2020 19:00:00 19,7 12,0 19,6 21,8 21,4 11 6 28 15 W 1010,6 16 14 0,0
24.09.2020 18:00:00 20,1 12,1 20,5 21,7 21,5 18 10 39 21 W 1010,5 17 13 0,0
24.09.2020 17:00:00 20,8 13,0 21,5 21,6 21,4 17 9 40 22 WNW 1010,6 15 29 0,0
24.09.2020 16:00:00 20,7 14,3 21,3 21,5 21,5 18 10 39 21 W 1010,7 10 35 0,0
24.09.2020 15:00:00 20,6 16,4 19,2 21,5 21,5 15 8 34 18 W 1010,8 14 28 0,0
24.09.2020 14:00:00 18,6 16,7 18,0 21,5 21,5 10 6 25 13 WSW 1011,5 18 0 0,0
24.09.2020 13:00:00 17,7 16,7 16,8 21,5 21,5 13 7 19 11 WSW 1011,8 5 0 0,6
24.09.2020 12:00:00 17,0 16,4 16,9 21,5 21,5 11 6 16 9 SSW 1012,2 2,0 0 0,6
24.09.2020 11:00:00 17,1 16,3 16,6 21,6 21,5 11 6 15 8 SSW 1012,1 2,0 0 0,0
24.09.2020 10:00:00 16,6 16,0 16,2 21,6 21,5 7 4 18 10 W 1012,1 3,2 0 0,4
24.09.2020 09:00:00 16,5 16,0 16,1 21,7 21,5 9 5 15 8 SSW 1011,9 4,5 0 0,8
24.09.2020 08:00:00 16,5 15,7 15,9 21,8 21,5 5 3 23 12 WSW 1011,9 4,4 0 3,1
24.09.2020 07:00:00 16,8 15,8 16,2 21,8 21,5 8 4 22 12 WSW 1011,9 3,8 0 0,6
24.09.2020 06:00:00 17,0 16,4 16,7 21,9 21,5 11 6 18 10 SSW 1011,7 15 0 0,4
24.09.2020 05:00:00 17,2 16,4 16,8 21,9 21,5 13 7 21 11 SW 1012,1 15 0 0,6
24.09.2020 04:00:00 17,4 16,4 16,8 22,0 21,5 16 8 25 13 SSW 1012,2 2,4 0 1,2
24.09.2020 03:00:00 17,8 17,0 17,3 22,1 21,5 6 3 14 7 S 1011,9 4,9 0 0,2
24.09.2020 02:00:00 18,2 17,4 17,6 22,1 21,5 8 4 16 9 S 1012,4 10 0 0,0
24.09.2020 01:00:00 18,6 17,6 18,0 22,1 21,5 8 4 14 8 SSW 1012,6 8 0 0,0
24.09.2020 00:00:00 19,0 17,5 18,1 22,1 21,5 10 6 14 8 SSW 1012,5 5 0 0,0
23.09.2020 23:00:00 19,4 17,0 19,0 22,2 21,5 7 4 15 8 SSW 1012,5 15 0 0,0
23.09.2020 22:00:00 19,6 16,6 19,3 22,2 21,5 8 5 12 7 SSW 1012,1 15 0 0,0
23.09.2020 21:00:00 19,9 16,5 19,4 22,2 21,5 4 2 16 9 WSW 1011,5 17 0 0,0
23.09.2020 20:00:00 20,8 16,8 20,6 22,2 21,5 8 5 15 8 WSW 1011,4 14 0 0,0
23.09.2020 19:00:00 21,5 16,9 21,6 22,1 21,5 8 4 31 17 W 1010,9 14 0 0,0
23.09.2020 18:00:00 21,9 16,4 22,2 22,0 21,5 13 7 31 17 W 1010,7 17 9 0,0
23.09.2020 17:00:00 23,3 16,6 19,5 21,9 21,5 17 9 38 20 W 1010,4 15 11 0,0
23.09.2020 16:00:00 23,3 15,4 23,3 21,8 21,5 18 10 45 24 WNW 1010,0 3,0 12 0,0
23.09.2020 15:00:00 26,4 14,5 26,8 21,6 21,5 19 11 40 22 W 1009,3 15 36 0,0
23.09.2020 14:00:00 26,2 15,0 26,6 21,5 21,5 15 8 33 18 WSW 1009,1 27 31 0,0
23.09.2020 13:00:00 25,8 14,9 27,3 21,5 21,5 20 11 35 19 SW 1009,1 15 45 0,0
23.09.2020 12:00:00 23,6 16,6 22,4 21,5 21,5 5 3 9 5 SW 1009,3 23 48 0,0
23.09.2020 11:00:00 19,6 17,0 17,3 21,5 21,5 5 3 10 5 SE 1009,3 10 34 0,0
23.09.2020 10:00:00 15,8 15,5 14,6 21,6 21,5 4 2 8 4 ESE 1009,7 8 48 0,0
23.09.2020 09:00:00 14,2 14,0 13,2 21,6 21,5 4 2 7 4 ESE 1009,9 0,4 46 0,0
23.09.2020 08:00:00 13,7 13,5 13,1 21,7 21,5 2 1 7 4 E 1009,8 0,1 0 0,0
23.09.2020 07:00:00 14,2 14,0 13,9 21,8 21,5 4 2 8 4 E 1010,1 0,1 0 0,0
23.09.2020 06:00:00 14,8 14,5 14,0 21,8 21,5 4 2 5 3 E 1010,5 0,1 0 0,0
23.09.2020 05:00:00 15,1 14,8 13,8 21,9 21,5 2 1 4 2 NNE 1010,9 0,3 0 0,0
23.09.2020 04:00:00 15,3 14,7 14,1 22,0 21,5 3 1 6 4 SSE 1011,3 5 0 0,0
23.09.2020 03:00:00 16,3 15,8 14,8 22,1 21,6 3 1 7 4 NE 1011,9 4,4 0 0,0
23.09.2020 02:00:00 16,5 15,9 15,2 22,2 21,5 0 0 5 3 N 1012,5 4,3 0 0,0
23.09.2020 01:00:00 16,9 16,3 15,7 22,3 21,5 2 1 4 2 ESE 1012,7 7 0 0,0
23.09.2020 00:00:00 17,2 16,4 16,6 22,3 21,6 4 2 6 4 NNW 1013,1 7 0 0,0
22.09.2020 23:00:00 17,6 16,3 16,7 22,4 21,6 0 0 4 2 N 1013,2 10 0 0,0
22.09.2020 22:00:00 18,6 17,1 17,3 22,4 21,6 2 1 6 3 NW 1013,1 12 0 0,0
22.09.2020 21:00:00 20,0 17,2 18,3 22,4 21,5 4 2 9 5 E 1012,6 15 0 0,0
22.09.2020 20:00:00 21,1 17,1 20,1 22,3 21,6 7 4 16 8 E 1012,3 23 39 0,0
22.09.2020 19:00:00 23,4 16,7 23,9 22,2 21,5 6 3 15 8 N 1012,3 29 54 0,0
22.09.2020 18:00:00 23,9 16,4 24,4 22,1 21,5 7 4 21 11 WNW 1012,6 27 25 0,0
22.09.2020 17:00:00 24,4 15,9 25,5 22,0 21,6 9 5 17 9 WNW 1013,0 15 52 0,0
22.09.2020 16:00:00 24,2 15,4 25,0 21,8 21,6 6 3 22 12 NW 1013,7 10 49 0,0
22.09.2020 15:00:00 22,4 16,2 23,5 21,7 21,6 12 6 24 13 W 1014,4 10 35 0,0
22.09.2020 14:00:00 22,1 17,0 23,0 21,6 21,6 11 6 20 11 SW 1015,0 33 23 0,0
22.09.2020 13:00:00 21,5 16,9 21,7 21,6 21,6 9 5 16 8 WSW 1015,4 20 37 0,0
22.09.2020 12:00:00 19,9 17,3 19,2 21,6 21,6 5 3 10 6 W 1015,9 7 11 0,0
22.09.2020 11:00:00 18,5 17,7 18,0 21,6 21,6 6 3 13 7 SW 1016,2 2,0 1 0,0
22.09.2020 10:00:00 17,8 17,3 17,2 21,6 21,6 7 4 11 6 SSW 1016,0 2,0 0 0,0
22.09.2020 09:00:00 17,1 16,8 16,7 21,7 21,6 4 2 9 5 SW 1015,8 6 0 0,6
22.09.2020 08:00:00 17,0 16,7 16,6 21,7 21,6 5 3 9 5 SSW 1015,8 2,7 0 0,2
22.09.2020 07:00:00 17,1 16,6 16,7 21,8 21,6 4 2 7 4 SW 1015,6 3,0 0 0,0
22.09.2020 06:00:00 17,1 16,6 16,8 21,8 21,6 5 3 14 8 WSW 1015,9 9 0 2,2
22.09.2020 05:00:00 17,1 16,8 16,8 21,9 21,6 6 4 11 6 WNW 1016,1 2,2 0 0,8
22.09.2020 04:00:00 17,0 16,7 16,5 22,0 21,6 6 4 13 7 SW 1016,4 11 0 0,0
22.09.2020 03:00:00 16,9 16,4 16,5 22,1 21,6 7 4 11 6 SSW 1017,0 9 0 0,0
22.09.2020 02:00:00 17,1 16,6 16,6 22,1 21,6 5 3 9 5 SSW 1017,1 7 0 0,0
22.09.2020 01:00:00 17,1 16,3 16,5 22,2 21,6 3 2 15 8 W 1017,5 13 0 0,4
22.09.2020 00:00:00 17,9 17,3 16,7 22,2 21,6 9 5 16 9 WSW 1017,9 3,7 0 3,2
21.09.2020 23:00:00 18,3 17,1 17,8 22,3 21,6 7 4 16 9 WNW 1018,0 11 0 0,0
21.09.2020 22:00:00 18,8 17,1 18,3 22,3 21,7 7 4 14 7 SW 1017,9 20 0 0,0
21.09.2020 21:00:00 19,1 17,2 18,9 22,2 21,6 8 4 11 6 SW 1017,7 17 0 0,0
21.09.2020 20:00:00 20,0 17,0 19,8 22,2 21,6 6 3 15 8 W 1017,4 23 41 0,0
21.09.2020 19:00:00 20,7 16,3 21,0 22,1 21,7 10 5 18 10 W 1017,1 27 0 0,0
21.09.2020 18:00:00 21,7 16,9 22,5 22,0 21,7 10 5 29 16 W 1017,1 25 42 0,0
21.09.2020 17:00:00 21,9 17,7 22,8 21,9 21,7 11 6 30 16 W 1017,3 10 29 0,0
21.09.2020 16:00:00 21,0 17,6 20,1 21,8 21,7 10 5 22 12 W 1017,3 8 0 0,0
21.09.2020 15:00:00 20,4 18,0 20,1 21,7 21,7 16 8 29 15 WSW 1017,6 4,0 13 0,2
21.09.2020 14:00:00 20,7 18,5 19,8 21,7 21,7 11 6 20 11 W 1017,9 21 0 0,0
21.09.2020 13:00:00 19,7 18,4 19,0 21,7 21,7 13 7 22 12 WSW 1018,1 5 0 0,4
21.09.2020 12:00:00 18,8 18,1 18,5 21,7 21,7 8 4 15 8 WSW 1018,3 5 0 0,0
21.09.2020 11:00:00 18,8 18,0 18,5 21,7 21,7 7 4 17 9 WSW 1018,0 5 0 0,0
21.09.2020 10:00:00 19,2 18,2 19,2 21,7 21,7 8 5 14 8 WSW 1017,4 4,0 20 0,0
21.09.2020 09:00:00 18,6 18,1 17,7 21,7 21,7 5 3 13 7 SW 1017,4 6 36 0,0
21.09.2020 08:00:00 18,0 17,7 17,5 21,8 21,7 8 4 14 8 SSW 1017,0 5 0 0,0
21.09.2020 07:00:00 17,8 17,5 17,1 21,8 21,7 9 5 13 7 SSW 1016,7 4,0 0 0,0
21.09.2020 06:00:00 17,6 17,1 17,1 21,9 21,7 5 3 15 8 SSW 1016,6 6 0 0,0
21.09.2020 05:00:00 17,7 17,4 17,2 22,0 21,7 8 5 14 8 SSW 1016,7 7 0 0,0
21.09.2020 04:00:00 17,9 17,4 17,3 22,0 21,7 6 3 18 10 S 1016,8 1,6 0 2,6
21.09.2020 03:00:00 18,1 17,5 17,4 22,1 21,7 9 5 18 10 W 1017,3 2,5 0 0,6
21.09.2020 02:00:00 18,0 17,4 17,3 22,1 21,7 3 2 6 3 S 1017,3 10 0 0,0
21.09.2020 01:00:00 18,1 17,1 17,4 22,1 21,7 4 2 11 6 SSW 1017,4 14 0 0,0
21.09.2020 00:00:00 18,3 17,1 17,8 22,2 21,7 3 2 8 5 W 1017,3 7 0 0,0
20.09.2020 23:00:00 18,2 17,2 17,5 22,2 21,7 6 3 10 5 SSW 1017,4 10 0 0,0
20.09.2020 22:00:00 19,1 17,8 18,0 22,2 21,7 5 3 11 6 W 1017,2 9 0 0,0
20.09.2020 21:00:00 19,1 17,6 18,5 22,2 21,7 5 3 12 6 WSW 1016,6 15 0 0,0
20.09.2020 20:00:00 20,1 17,5 19,5 22,2 21,8 5 3 18 10 W 1016,0 19 26 0,0
20.09.2020 19:00:00 21,7 17,7 20,0 22,1 21,8 10 6 20 11 W 1015,5 20 56 0,0
20.09.2020 18:00:00 20,7 18,3 19,6 22,0 21,8 10 6 28 15 W 1015,3 15 29 0,0
20.09.2020 17:00:00 21,5 18,5 22,0 21,9 21,7 13 7 29 16 WSW 1015,4 16 18 0,0
20.09.2020 16:00:00 20,9 18,1 18,9 21,8 21,8 16 8 32 17 W 1015,4 21 13 2,5
20.09.2020 15:00:00 19,6 17,7 18,6 21,7 21,8 16 8 33 18 WNW 1015,6 0,7 33 3,9
20.09.2020 14:00:00 21,3 18,5 18,9 21,7 21,8 16 9 31 17 WSW 1015,6 14 16 0,0
20.09.2020 13:00:00 18,6 17,8 17,8 21,7 21,8 6 3 27 14 WNW 1015,8 2,5 0 13,0
20.09.2020 12:00:00 19,6 17,7 18,5 21,8 21,7 13 7 34 18 W 1016,0 1,3 13 2,2
20.09.2020 11:00:00 19,3 17,6 18,5 21,8 21,8 16 9 28 15 WSW 1015,3 18 6 0,2
20.09.2020 10:00:00 18,7 17,4 17,9 21,8 21,7 12 7 22 12 SW 1014,8 15 0 0,4
20.09.2020 09:00:00 18,4 17,2 16,7 21,9 21,7 10 5 19 10 SW 1014,6 13 10 0,0
20.09.2020 08:00:00 17,5 16,0 16,5 22,0 21,8 8 5 22 12 WSW 1014,4 17 0 0,0
20.09.2020 07:00:00 17,3 16,0 16,4 22,1 21,8 11 6 22 12 SSW 1014,2 5 0 1,8
20.09.2020 06:00:00 17,4 15,9 16,7 22,1 21,8 14 7 29 16 SSW 1014,1 26 0 0,0
20.09.2020 05:00:00 18,0 16,0 16,5 22,2 21,8 15 8 24 13 SSW 1014,2 17 0 0,0
20.09.2020 04:00:00 17,8 15,6 16,4 22,2 21,8 15 8 21 12 SSW 1014,2 6 0 0,2
20.09.2020 03:00:00 17,6 15,8 16,4 22,3 21,8 8 4 18 10 S 1014,2 31 0 0,0
20.09.2020 02:00:00 17,9 15,9 16,7 22,3 21,8 11 6 21 11 SSW 1014,1 27 0 0,0
20.09.2020 01:00:00 17,7 16,6 17,0 22,4 21,8 10 6 17 9 SSW 1014,2 20 0 0,0
20.09.2020 00:00:00 18,1 17,1 17,5 22,4 21,8 10 5 23 12 SW 1014,4 11 0 0,4
19.09.2020 23:00:00 18,2 17,2 17,4 22,5 21,8 12 7 23 12 SW 1014,3 16 0 0,2
19.09.2020 22:00:00 18,0 17,4 16,5 22,5 21,8 13 7 20 11 SW 1014,1 10 0 0,2
19.09.2020 21:00:00 17,2 16,6 16,6 22,6 21,8 3 2 8 4 SSE 1013,2 14 0 0,0
19.09.2020 20:00:00 17,3 16,3 16,8 22,6 21,8 3 1 16 9 WSW 1012,9 29 7 2,2
19.09.2020 19:00:00 17,6 16,6 17,1 22,5 21,7 11 6 39 21 WSW 1012,7 4,5 0 5,3
19.09.2020 18:00:00 19,7 17,1 18,1 22,5 21,8 28 15 51 28 WSW 1012,3 11 0 0,4
19.09.2020 17:00:00 22,5 16,3 20,1 22,5 21,8 9 5 16 8 W 1010,6 13 0 0,0
19.09.2020 16:00:00 23,9 14,3 23,9 22,4 21,8 10 6 31 17 SW 1010,7 32 0 0,0
19.09.2020 15:00:00 24,9 13,4 24,9 22,4 21,8 18 10 34 18 S 1011,0 31 0 0,0
19.09.2020 14:00:00 26,7 13,1 27,7 22,3 21,8 18 10 36 19 SSW 1010,9 35 10 0,0
19.09.2020 13:00:00 26,3 13,1 27,9 22,3 21,8 16 9 39 21 S 1011,0 40 37 0,0
19.09.2020 12:00:00 26,1 13,6 28,5 22,3 21,8 20 11 36 19 S 1011,3 35 60 0,0
19.09.2020 11:00:00 24,9 14,7 24,4 22,3 21,8 6 3 12 6 S 1011,7 26 57 0,0
19.09.2020 10:00:00 20,0 16,6 16,6 22,4 21,8 3 2 9 5 NE 1011,3 25 18 0,0
19.09.2020 09:00:00 16,7 15,6 15,9 22,5 21,8 6 3 18 10 ESE 1011,0 20 0 0,0
19.09.2020 08:00:00 16,4 15,6 15,4 22,5 21,8 9 5 14 8 E 1010,8 11 0 0,0
19.09.2020 07:00:00 16,8 15,8 16,1 22,6 21,8 2 1 13 7 NNE 1010,2 12 0 0,0
19.09.2020 06:00:00 16,8 15,7 16,0 22,7 21,8 5 3 15 8 NNE 1010,4 15 0 0,0
19.09.2020 05:00:00 16,7 15,7 16,0 22,7 21,8 7 4 14 8 NNE 1010,5 15 0 0,0
19.09.2020 04:00:00 16,6 15,6 15,8 22,8 21,8 7 4 16 9 ENE 1010,6 15 0 0,0
19.09.2020 03:00:00 16,8 16,2 15,6 22,9 21,8 4 2 12 6 NNE 1011,1 15 0 0,0

tt = temperature
td = dewpoint
tt 5cm = temperature 5cm
tt -20cm = temperature -20cm
tt -100cm = temperature -100cm
ff = wind speed
fx = gusts
dd = wind direction
ppp = reduced air pressure
vv = visibility
sd = sunshine duration
rr = precipitation

Next stations